SCP
0 0 0 0 0 0 -0 -0 -0 -0 0 0 0 0 0 0 0 0 0 0 0 0 0 0 0 0 0 0 0 0 0 0 0 0 0 0 0 0 0 0 0 0 0
0 0 0 0 0 0 0 0 0 0 0 0 0 0 0 0 0 0 0 0 0 0 0 0 0 0 0 0 0 0 0 0 0 0 0 0 0 0 0 0 0 0 0
0 0 0 0 0 0 0 0 0 0 0 0 0 0 0 0 0 0 0 0 0 0 0 0 0 0 0 0 0 0 0 0 0 0 0 0 0 0 0 0 0 0 0
0 0 0 0 1 1 1 1 0 0 0 0 0 0 0 0 0 0 0 0 0 0 0 0 0 0 0 0 0 0 0 0 0 0 0 0 0 0 0 0 0 0 0
0 0 0 0 0 1 1 1 1 1 1 1 0 0 0 0 0 0 0 0 0 0 0 0 0 0 0 0 0 0 0 0 0 0 0 0 0 0 0 0 0 0 0
0 0 0 0 0 0 0 1 1 1 1 1 1 1 1 0 0 0 0 0 0 0 0 1 1 0 0 0 0 0 0 0 0 0 0 0 0 0 0 0 0 0 0
0 0 0 0 0 0 0 0 0 0 0 1 1 1 1 1 1 1 1 1 1 1 1 1 1 1 1 0 0 0 0 0 0 0 0 0 0 0 0 0 0 0 0
0 0 0 0 0 0 0 0 0 0 0 0 0 0 1 1 1 1 1 1 1 1 1 1 1 1 1 1 1 1 1 1 0 0 0 0 1 0 0 0 0 0 0
0 0 0 0 0 0 0 0 0 0 0 0 0 0 0 1 1 1 1 1 1 1 1 1 1 1 1 1 1 1 1 1 1 1 1 1 1 1 0 0 0 0 0
0 0 0 0 0 0 0 0 0 0 0 0 0 0 0 0 0 1 1 1 1 1 1 1 1 1 1 1 1 1 1 1 1 1 1 1 1 1 1 1 0 0 0
0 0 0 0 0 0 0 0 0 0 0 0 0 0 0 0 0 0 0 0 1 1 1 1 1 1 1 1 1 1 1 1 1 1 1 1 1 1 1 1 1 0 0
0 0 0 0 0 0 0 0 0 0 0 0 0 0 0 0 0 0 0 0 0 1 1 1 1 1 1 1 1 1 1 1 1 1 1 1 1 1 1 1 1 1 0
0 0 0 0 0 0 0 0 0 0 0 0 0 0 0 0 0 0 0 0 0 0 0 1 1 1 1 1 1 1 1 1 1 1 1 1 1 1 1 1 1 1 1
0 0 0 0 0 0 0 0 0 0 0 0 0 0 0 0 0 0 0 0 0 0 0 0 1 1 1 1 1 1 1 1 1 1 1 0 0 1 1 1 1 1 1
0 0 0 0 0 0 0 0 0 0 0 0 0 0 0 0 0 0 0 0 0 0 0 0 0 0 0 1 1 1 1 1 1 1 0 0 0 0 0 1 1 1 1
0 0 0 0 0 0 0 0 0 0 0 0 0 0 0 0 0 0 0 0 0 0 0 0 0 0 0 0 0 1 1 1 1 0 0 0 0 0 0 1 1 1 1
0 0 0 0 0 0 0 0 0 0 0 0 0 0 0 0 0 0 0 0 0 0 0 0 0 0 0 0 0 0 0 0 0 0 0 0 0 0 0 0 1 1 1
0 0 0 0 0 0 0 0 0 0 0 0 0 0 0 0 0 0 0 0 0 0 0 -0 0 0 0 0 0 0 0 0 0 0 0 0 0 0 0 0 1 1 1
0 0 0 0 0 0 0 0 0 0 0 0 0 0 0 0 0 0 0 0 0 0 0 0 0 0 0 0 0 0 0 0 0 0 0 0 0 0 0 0 0 1 1
0 0 0 0 0 0 0 0 0 0 0 0 0 0 0 0 0 0 0 0 0 0 0 0 0 0 0 0 0 0 0 0 0 0 0 0 0 0 0 0 0 1 1
0 0 0 0 0 0 0 0 0 0 0 0 0 0 0 0 0 0 0 0 0 0 0 0 0 0 0 0 0 0 0 0 0 0 0 0 0 0 0 0 0 1 1
0 0 0 0 0 0 0 0 0 0 0 0 0 0 0 0 0 0 0 0 0 0 0 0 0 0 0 0 0 0 0 0 0 0 0 0 0 0 0 0 0 1 1
0 0 0 0 0 0 0 0 0 0 0 0 0 0 0 0 0 0 0 0 0 0 0 0 0 0 0 0 0 0 0 0 0 0 0 0 0 0 0 0 0 1 1
0 0 0 0 0 0 0 0 0 0 0 0 0 0 0 0 0 0 0 0 0 0 0 0 0 0 0 0 0 0 0 0 0 0 0 0 0 0 0 0 0 0 1
0 0 0 0 0 0 0 0 0 0 0 0 0 0 0 0 0 0 0 0 0 0 0 0 0 0 0 0 0 0 0 0 0 0 0 0 0 0 0 0 0 0 1
0 0 0 0 0 0 0 0 0 0 0 0 0 0 0 0 0 0 0 0 0 0 0 0 0 0 0 0 0 0 0 0 0 0 0 0 0 0 0 0 0 0 1
Wind_Speed
15 11 12 11 10 9 10 10 10 10 10 8 7 7 7 7 7 6 5 5 5 5 5 4 3 3 2 2 2 1 1 1 0 1 3 5 6 6 6 5 5 5 6
16 12 14 14 12 11 11 11 11 11 11 10 9 9 9 9 8 8 8 7 7 7 7 7 6 5 5 4 4 3 3 2 1 1 2 5 6 6 6 6 4 3 5
18 17 19 20 16 13 12 11 11 11 11 11 10 10 10 10 10 10 10 10 9 9 10 9 9 8 7 6 6 5 5 4 3 3 4 6 6 6 6 6 4 4 5
18 19 22 26 23 19 16 14 13 12 12 12 12 11 11 11 11 11 11 11 11 11 11 11 11 10 9 8 7 7 7 7 6 5 7 5 5 7 6 7 6 6 6
18 19 23 29 29 28 25 21 18 16 15 14 13 13 13 13 13 12 12 12 12 11 11 11 11 11 10 9 9 9 9 8 7 9 7 5 5 6 7 7 7 7 6
20 20 24 30 30 30 30 29 27 24 21 19 17 16 16 15 15 14 13 13 12 12 11 10 10 10 10 10 10 10 10 8 9 10 8 7 6 6 8 8 7 7 7
21 21 23 29 29 29 30 29 29 28 27 25 23 21 19 17 17 16 15 13 13 12 11 10 9 8 8 9 9 9 8 7 10 8 8 8 6 5 9 9 9 9 9
21 21 22 27 28 28 29 29 28 27 27 26 26 25 23 20 18 16 16 14 13 13 12 11 9 8 7 7 7 7 5 7 10 10 9 9 6 7 11 11 11 10 10
22 21 21 22 22 24 25 27 26 26 26 25 26 26 24 21 20 18 16 15 14 13 12 11 11 10 8 7 6 5 4 4 9 7 9 8 6 8 12 13 13 12 11
22 22 22 22 21 20 19 22 23 23 25 24 24 25 23 20 20 19 17 18 17 15 13 12 12 11 10 9 7 6 4 6 10 9 7 6 5 8 10 12 14 14 13
22 21 21 21 21 20 18 18 19 19 21 21 20 23 19 14 15 15 18 20 19 17 15 13 13 12 10 10 9 7 7 8 8 6 7 3 4 9 10 10 12 15 15
22 21 19 20 20 19 15 14 12 12 14 15 15 17 14 13 12 14 16 18 19 18 15 13 12 12 11 9 10 9 8 9 8 7 5 5 7 10 11 10 11 14 16
19 20 19 19 19 18 13 12 10 9 10 12 16 17 14 12 11 11 9 10 12 14 11 11 10 8 9 8 7 8 8 7 6 6 6 8 9 10 11 12 12 14 17
19 20 20 19 18 17 15 12 11 10 9 10 13 16 13 10 11 11 9 11 10 8 10 10 8 10 10 11 11 11 10 7 6 5 4 7 9 11 12 13 13 14 17
19 20 20 20 19 17 14 12 11 11 11 12 11 12 15 11 12 12 10 10 11 10 10 10 10 11 11 11 10 11 12 11 10 8 5 8 10 11 13 14 15 15 16
19 20 19 20 19 18 15 14 12 12 12 11 11 14 15 12 12 12 12 11 11 11 12 11 13 11 9 9 10 11 11 11 11 10 8 7 11 12 13 14 15 16 17
18 18 19 18 19 19 17 16 12 12 13 12 12 13 15 15 14 13 11 11 11 12 14 12 13 11 9 9 10 11 10 11 11 11 10 8 8 11 13 14 15 16 17
17 18 18 16 18 19 17 16 12 12 13 11 11 12 15 16 16 14 12 11 12 12 11 11 11 10 10 10 10 9 9 9 12 12 11 10 9 8 11 15 15 17 17
17 18 18 18 19 18 17 15 14 13 13 12 11 11 14 15 16 14 11 11 13 11 10 10 10 11 11 11 10 10 10 10 11 11 12 12 11 10 9 10 14 15 16
18 18 18 18 19 18 14 13 12 13 11 11 11 12 15 13 16 14 11 13 13 11 10 11 13 12 11 11 12 12 12 11 10 11 12 12 11 12 12 11 10 12 17
18 19 19 19 19 16 13 14 13 13 12 11 11 15 15 15 16 14 12 13 13 12 13 14 13 14 11 11 11 11 12 14 14 12 11 11 12 12 12 12 10 10 9
17 17 18 18 18 17 14 13 12 13 12 11 12 14 15 16 16 13 14 13 13 13 14 14 14 11 11 10 9 10 10 12 13 13 12 12 13 11 12 13 12 12 10
17 17 16 18 17 17 17 12 12 11 11 11 13 12 15 17 16 15 15 14 14 13 12 14 14 14 12 11 10 9 9 9 8 10 13 13 13 12 11 11 13 13 13
16 15 16 17 17 16 16 14 17 13 13 15 13 13 17 16 16 16 15 15 15 13 14 14 13 12 13 11 10 10 12 13 11 9 8 10 13 13 12 10 11 12 12
15 14 15 16 16 16 16 16 15 14 13 13 14 16 16 15 15 16 16 15 15 13 15 16 15 14 11 11 10 10 12 12 15 13 12 9 9 9 10 10 9 9 11
14 14 14 16 16 16 17 16 16 17 18 18 18 17 15 13 13 16 17 16 16 15 15 16 15 16 13 13 12 11 11 11 11 12 14 14 12 10 10 9 9 8 8
Wind_Direction
348 356 358 359 4 1 357 355 357 358 356 358 0 360 358 359 359 359 356 349 343 335 327 313 295 291 285 273 251 210 170 158 160 202 193 178 168 164 159 159 189 160 126
349 6 7 2 359 355 351 350 348 346 348 353 352 348 342 338 335 331 327 323 319 310 300 292 282 270 263 252 240 225 201 179 153 109 169 184 177 182 179 186 243 114 148
2 9 11 8 0 353 348 345 340 337 335 336 336 334 329 326 323 318 315 314 316 313 301 290 282 273 264 254 242 233 222 205 190 165 213 207 177 185 189 191 208 168 172
10 16 16 15 13 7 358 350 342 336 330 326 324 320 316 313 310 309 308 309 311 315 308 291 280 274 266 257 247 243 236 221 207 201 220 204 194 168 194 198 207 200 190
20 23 21 22 23 22 17 9 359 350 339 330 322 316 309 303 300 300 300 301 304 307 305 292 276 267 261 250 243 243 242 231 212 225 228 211 213 169 204 206 213 211 203
27 27 27 26 27 27 25 23 20 13 3 353 342 331 320 308 301 298 297 295 294 297 298 294 281 268 258 247 239 238 238 230 219 228 225 219 217 187 216 213 216 214 211
28 27 28 28 27 27 26 25 24 21 18 14 7 356 342 325 313 304 298 297 292 289 291 291 285 273 261 247 237 234 232 220 234 231 226 224 223 207 230 220 213 212 212
29 27 26 26 25 26 26 24 23 21 19 17 14 7 358 347 332 319 308 304 301 293 290 288 285 276 264 251 240 230 217 228 228 226 223 225 209 223 239 229 214 211 211
29 27 24 21 19 19 22 21 20 20 18 16 14 9 2 357 352 342 330 319 310 300 294 289 283 277 266 255 244 224 204 223 249 231 226 226 190 229 247 233 214 210 211
27 24 20 18 15 12 12 16 14 16 14 12 12 9 3 358 357 352 350 344 331 314 298 290 283 276 266 256 246 226 207 226 240 234 232 217 183 239 257 237 216 209 210
24 20 17 14 11 7 5 5 6 9 10 7 8 5 2 358 358 350 353 348 344 334 314 294 284 279 271 246 236 230 226 240 236 238 234 190 215 247 257 244 226 215 211
17 14 13 12 8 4 1 359 360 2 2 4 3 1 357 354 352 350 343 348 343 339 325 304 288 273 257 247 218 209 236 237 242 235 223 171 234 249 252 248 237 225 217
13 12 9 9 6 3 358 355 354 353 355 357 360 359 354 352 348 350 344 345 342 340 338 327 307 282 267 259 258 239 240 245 241 238 219 182 229 246 250 247 244 233 223
11 10 6 5 5 2 358 353 351 351 350 351 353 355 354 350 348 346 340 339 337 338 334 328 318 304 286 268 255 253 247 239 241 242 225 184 229 243 248 247 245 239 226
9 6 3 1 2 358 355 351 351 349 348 344 347 350 352 347 344 342 335 335 333 333 330 326 318 313 300 286 269 258 252 249 245 241 227 197 224 239 245 247 244 242 230
6 2 360 358 359 356 354 351 347 345 344 342 343 345 347 345 341 336 331 330 329 331 327 319 315 310 299 289 278 267 260 254 249 245 245 219 214 230 240 243 243 241 236
3 360 359 355 355 354 352 349 345 343 341 339 340 340 346 344 339 334 328 325 329 327 322 318 315 310 304 296 282 272 265 259 255 250 246 247 235 218 225 237 241 241 239
2 359 357 355 352 352 350 345 343 341 340 338 338 338 346 342 341 333 327 324 328 323 318 317 314 313 307 297 286 275 267 261 258 254 249 243 245 245 223 220 232 237 239
2 358 356 356 353 351 347 342 340 339 338 337 338 342 343 340 341 334 325 326 328 323 318 317 317 313 305 298 288 276 265 259 257 253 248 245 242 241 245 220 215 230 235
0 357 356 354 353 350 347 341 339 339 337 337 339 341 338 337 337 332 326 328 328 322 322 320 315 309 301 294 287 277 266 258 253 251 250 246 240 238 238 243 230 221 224
358 356 355 353 351 351 348 343 340 338 336 335 337 335 335 334 334 331 328 327 326 322 320 316 316 311 306 303 291 277 261 251 248 246 243 244 239 236 236 236 238 238 220
355 354 352 351 348 349 347 338 335 330 330 333 333 331 333 333 332 331 331 328 324 320 316 317 317 310 305 301 300 292 268 252 237 237 239 238 240 237 235 233 233 233 237
356 354 350 348 345 347 344 339 336 334 333 337 336 332 332 330 329 328 329 328 322 318 312 311 309 303 303 302 288 281 278 262 259 232 231 235 235 235 234 232 230 231 232
353 351 348 346 344 346 344 343 342 340 339 336 333 327 327 327 326 326 326 326 321 316 309 305 302 297 293 289 287 271 268 282 282 264 232 231 237 236 232 226 227 227 230
350 350 347 344 345 346 345 344 341 339 336 332 332 329 330 327 325 325 326 324 320 314 309 304 300 292 282 278 277 278 280 274 263 264 260 247 230 231 233 228 225 225 226
350 350 347 345 345 346 345 344 342 339 337 334 336 333 332 327 325 327 326 323 319 314 311 307 301 294 284 273 268 265 264 265 263 256 252 251 247 235 227 227 225 222 221